EW0407 Weather Reports


time (UTC)temp
C
wind
direction
speed
KPH
gust
KPH
rain 1hr
cm
rain 24hr
cm
rain mn
cm
humidity
%
barometer
mb
20260508064211 18 286 1.6 4.8 0.00 0.00 0.00 43 1024.1
20260508063027 18 273 1.6 8.0 0.00 0.00 0.00 46 1023.9
20260508062051 18 290 8.0 9.7 0.00 0.00 0.00 48 1023.9
20260508061011 18 300 11.3 12.9 0.00 0.00 0.00 51 1023.6
20260508055827 18 278 4.8 9.7 0.00 0.00 0.00 53 1023.1
20260508054851 18 275 4.8 4.8 0.00 0.00 0.00 52 1022.6
20260508053811 18 213 1.6 1.6 0.00 0.00 0.00 51 1022.5
20260508052627 18 338 1.6 3.2 0.00 0.00 0.00 49 1022.2
20260508051650 18 127 1.6 4.8 0.00 0.00 0.00 48 1022.3
20260508050611 18 18 3.2 3.2 0.00 0.00 0.00 49 1022.2
20260508045447 17 0.0 0.0 0.00 0.00 0.00 54 1022.7
20260508044451 17 0.0 0.0 0.00 0.00 0.00 54 1022.2
20260508043411 17 186 0.0 1.6 0.00 0.00 0.00 53 1022.1
20260508042227 17 33 1.6 3.2 0.00 0.00 0.00 51 1021.6
20260508041251 17 0.0 1.6 0.00 0.00 0.00 51 1021.8
20260508040211 17 106 0.0 1.6 0.00 0.00 0.00 49 1021.2
20260508035027 17 111 1.6 3.2 0.00 0.00 0.00 46 1021.5
20260508034051 17 28 1.6 3.2 0.00 0.00 0.00 47 1021.3
20260508033011 17 54 3.2 3.2 0.00 0.00 0.00 48 1021.2
20260508031827 17 55 1.6 3.2 0.00 0.00 0.00 47 1021.4
20260508030851 17 92 3.2 4.8 0.00 0.00 0.00 49 1021.4
20260508025811 17 309 1.6 1.6 0.00 0.00 0.00 46 1021.3
20260508024647 17 96 4.8 4.8 0.00 0.00 0.00 50 1021.4
20260508023651 18 0.0 0.0 0.00 0.00 0.00 43 1021.7
20260508022611 18 129 1.6 3.2 0.00 0.00 0.00 45 1021.6
20260508021427 17 0.0 1.6 0.00 0.00 0.00 46 1021.5
20260508020451 17 154 0.0 1.6 0.00 0.00 0.00 49 1021.5
20260508015411 17 114 1.6 4.8 0.00 0.00 0.00 52 1021.6
20260508014227 17 7 3.2 3.2 0.00 0.00 0.00 50 1021.8
20260508013251 17 0.0 1.6 0.00 0.00 0.00 49 1021.9
20260508012211 17 99 1.6 3.2 0.00 0.00 0.00 53 1022.1
20260508011027 17 110 1.6 3.2 0.00 0.00 0.00 52 1022.0
20260508010051 17 124 1.6 1.6 0.00 0.00 0.00 55 1022.4
20260508005031 17 0.0 0.0 0.00 0.00 0.00 59 1022.3
20260508004035 17 117 0.0 1.6 0.00 0.00 0.00 53 1022.6
20260508003059 17 0.0 1.6 0.00 0.00 0.00 56 1022.4
20260508002032 17 0.0 1.6 0.00 0.00 0.00 58 1022.4
20260508000828 17 2 4.8 4.8 0.00 0.00 0.00 60 1022.5
20260507235852 17 359 3.2 4.8 0.00 0.00 0.00 59 1022.6
20260507234812 17 6 1.6 3.2 0.00 0.00 0.00 58 1022.8
20260507233648 17 183 0.0 1.6 0.00 0.00 0.00 56 1023.1
20260507232653 17 0.0 0.0 0.00 0.00 0.00 55 1022.9
20260507231612 17 0.0 1.6 0.00 0.00 0.00 54 1022.9
20260507230448 17 224 1.6 3.2 0.00 0.00 0.00 54 1023.1
20260507225513 17 234 1.6 3.2 0.00 0.00 0.00 53 1023.2
20260507224412 17 253 1.6 3.2 0.00 0.00 0.00 51 1023.1
20260507223438 17 0.0 0.0 0.00 0.00 0.00 53 1023.1
20260507222500 17 0.0 0.0 0.00 0.00 0.00 53 1023.2
20260507221420 17 143 0.0 1.6 0.00 0.00 0.00 51 1023.4
20260507220440 17 0.0 0.0 0.00 0.00 0.00 51 1023.2
20260507215500 17 0.0 1.6 0.00 0.00 0.00 51 1023.7
20260507214421 17 0.0 3.2 0.00 0.00 0.00 51 1023.6
20260507213457 17 101 1.6 3.2 0.00 0.00 0.00 50 1023.6
20260507212500 17 113 1.6 3.2 0.00 0.00 0.00 50 1023.7
20260507211420 17 0.0 1.6 0.00 0.00 0.00 51 1023.8
20260507210443 17 126 1.6 1.6 0.00 0.00 0.00 52 1023.7
20260507205521 17 124 3.2 4.8 0.00 0.00 0.00 51 1023.5
20260507204421 17 120 6.4 9.7 0.00 0.00 0.00 52 1023.6
20260507203525 17 110 3.2 8.0 0.00 0.00 0.00 52 1023.6
20260507202500 17 125 4.8 11.3 0.00 0.00 0.00 51 1023.9
20260507201412 17 109 3.2 8.0 0.00 0.00 0.00 50 1023.5
20260507200248 17 156 8.0 9.7 0.00 0.00 0.00 50 1023.7
20260507195254 17 135 3.2 8.0 0.00 0.00 0.00 55 1023.9
20260507194212 17 121 6.4 11.3 0.00 0.00 0.00 55 1023.5
20260507193029 17 109 6.4 12.9 0.00 0.00 0.00 54 1023.6
20260507192113 17 102 4.8 8.0 0.00 0.00 0.00 54 1023.5
20260507191053 17 113 4.8 9.7 0.00 0.00 0.00 53 1023.4
20260507190037 17 110 4.8 9.7 0.00 0.00 0.00 53 1023.5
20260507185100 17 104 6.4 8.0 0.00 0.00 0.00 53 1023.6
20260507184013 17 117 4.8 8.0 0.00 0.00 0.00 53 1023.3
20260507182829 17 145 6.4 9.7 0.00 0.00 0.00 53 1023.3
20260507181852 17 118 4.8 8.0 0.00 0.00 0.00 54 1023.3
20260507180812 17 111 4.8 8.0 0.00 0.00 0.00 54 1023.4
20260507175628 17 122 8.0 9.7 0.00 0.00 0.00 56 1023.4
20260507174652 17 76 4.8 9.7 0.00 0.00 0.00 57 1023.0
20260507173632 17 142 4.8 14.5 0.00 0.00 0.00 57 1023.0
20260507172428 18 165 6.4 11.3 0.00 0.00 0.00 56 1022.9
20260507171452 18 117 4.8 11.3 0.00 0.00 0.00 55 1022.7
20260507170452 18 119 4.8 16.1 0.00 0.00 0.00 55 1022.5
20260507165248 19 149 11.3 16.1 0.00 0.00 0.00 53 1022.7
20260507164312 19 169 1.6 9.7 0.00 0.00 0.00 52 1022.2
20260507163213 20 132 6.4 9.7 0.00 0.00 0.00 51 1022.4
20260507162028 20 167 6.4 11.3 0.00 0.00 0.00 49 1022.1
20260507161113 20 108 8.0 9.7 0.00 0.00 0.00 46 1022.3
20260507160012 21 121 4.8 8.0 0.00 0.00 0.00 43 1022.0
20260507154849 21 130 9.7 12.9 0.00 0.00 0.00 41 1022.4
20260507153913 22 133 4.8 11.3 0.00 0.00 0.00 38 1022.3
20260507152812 22 106 4.8 9.7 0.00 0.00 0.00 35 1022.3
20260507151628 22 182 8.0 11.3 0.00 0.00 0.00 35 1022.2
20260507150653 22 11 3.2 11.3 0.00 0.00 0.00 35 1022.2
20260507145632 22 94 11.3 14.5 0.00 0.00 0.00 34 1022.2
20260507144428 22 166 8.0 12.9 0.00 0.00 0.00 32 1022.2
20260507143452 23 111 9.7 14.5 0.00 0.00 0.00 32 1022.3
20260507142412 23 153 8.0 14.5 0.00 0.00 0.00 32 1022.3
20260507141247 23 164 12.9 17.7 0.00 0.00 0.00 32 1022.1
20260507140251 23 193 4.8 16.1 0.00 0.00 0.00 33 1022.0
20260507135211 23 158 14.5 24.1 0.00 0.00 0.00 32 1021.8
20260507134027 23 155 11.3 20.9 0.00 0.00 0.00 33 1021.6
20260507133231 23 136 12.9 17.7 0.00 0.00 0.00 37 1021.4
20260507130827 23 149 11.3 16.1 0.00 0.00 0.00 35 1021.7
20260507125851 23 141 9.7 14.5 0.00 0.00 0.00 34 1022.0
20260507124811 23 113 6.4 16.1 0.00 0.00 0.00 34 1022.0
20260507123627 25 133 3.2 12.9 0.00 0.00 0.00 38 1022.1
20260507122651 26 204 4.8 11.3 0.00 0.00 0.00 30 1021.9
20260507121611 26 4 3.2 11.3 0.00 0.00 0.00 30 1022.1
20260507120428 26 157 4.8 17.7 0.00 0.00 0.00 32 1022.3
20260507115451 25 154 9.7 12.9 0.00 0.00 0.00 35 1022.2
20260507114411 26 187 11.3 14.5 0.00 0.00 0.00 29 1022.0
20260507113247 26 186 9.7 20.9 0.00 0.00 0.00 32 1022.2
20260507112311 26 178 14.5 16.1 0.00 0.00 0.00 28 1022.4
20260507111211 26 176 8.0 11.3 0.00 0.00 0.00 30 1022.2
20260507110027 25 172 12.9 17.7 0.00 0.00 0.00 31 1022.0
20260507105111 26 137 6.4 17.7 0.00 0.00 0.00 31 1022.2
20260507104011 26 139 3.2 16.1 0.00 0.00 0.00 31 1022.1
20260507103055 26 127 9.7 17.7 0.00 0.00 0.00 30 1021.9
20260507102059 25 219 8.0 12.9 0.00 0.00 0.00 39 1021.7
20260507101019 25 150 9.7 17.7 0.00 0.00 0.00 48 1022.2
20260507095828 25 0.0 4.8 0.00 0.00 0.00 48 1022.2
20260507094852 24 176 6.4 11.3 0.00 0.00 0.00 52 1022.2
20260507093812 24 155 8.0 14.5 0.00 0.00 0.00 50 1022.2
20260507092628 25 138 11.3 16.1 0.00 0.00 0.00 45 1022.4
20260507091652 24 120 6.4 8.0 0.00 0.00 0.00 47 1022.4
20260507090613 24 136 8.0 11.3 0.00 0.00 0.00 48 1022.0
20260507085429 25 145 4.8 8.0 0.00 0.00 0.00 47 1022.3
20260507084452 25 160 1.6 9.7 0.00 0.00 0.00 47 1022.2
20260507083432 24 130 4.8 8.0 0.00 0.00 0.00 48 1022.1
20260507082332 23 228 4.8 9.7 0.00 0.00 0.00 48 1022.0
20260507081356 24 90 1.6 8.0 0.00 0.00 0.00 48 1022.2
20260507080316 23 208 4.8 4.8 0.00 0.00 0.00 47 1022.3
20260507075228 23 134 1.6 8.0 0.00 0.00 0.00 49 1022.1
20260507074312 23 82 4.8 4.8 0.00 0.00 0.00 47 1022.1
20260507073212 22 116 4.8 9.7 0.00 0.00 0.00 50 1021.6
20260507072028 22 167 6.4 8.0 0.00 0.00 0.00 51 1022.2
20260507071052 22 142 3.2 4.8 0.00 0.00 0.00 51 1022.5
20260507070013 21 178 6.4 9.7 0.00 0.00 0.00 53 1022.7